Home > Time Zones > World Clock > Weather > Japan > Kobe > Past weeks

Flag for Japan Weather past 2 weeks in Kobe, Japan

Now
79 °F

Broken clouds.


Feels Like: 80 °F
Forecast: 63 / 80 °F
Wind: 12 mph from West

Location: Osaka International Airport

Current Time: May 30, 2015 at 6:21:54 PM

Latest Report: May 30, 2015 at 6:00 PM


Visibility: N/A

Pressure: 29.56 "Hg

Humidity: 51%

Dew point: 59 °F

Location of KobeLocation

Historic Weather in Kobe — Graph

°F

Kobe temperature yesterday

Maximum temperature yesterday: 88 °F (at 2:00 PM)
Minimum temperature yesterday: 72 °F (at 5:00 AM)
Average temperature yesterday: 81 °F

Past Weeks' High & Low Weather Summary

 TemperatureHumidityPressure
High90 °F (May 27, 4:00 PM)100% (May 16, 5:00 AM)30.01 "Hg (May 16, 5:00 AM)
Low54 °F (May 21, 5:00 AM)19% (May 27, 7:00 PM)29.53 "Hg (May 20, 2:00 PM)
Average74 °F52%29.77 "Hg
* Reported May 15 5:00 PM — May 30 5:00 PM, Kobe, Weather by CustomWeather, © 2015

Note: Actual official high and low records may vary slightly from our data, if they occured in-between our weather recording intervals... More about our weather records

Advertising

Kobe weather history for previous 24 hours

 ConditionsComfort  
Time TempWeatherWind HumidityBarometerVisibility
5:00 PM
Sat, May 30
81 °FBroken clouds.9 mph45%29.56 "HgN/A
4:00 PM79 °FBroken clouds.14 mph51%29.56 "HgN/A
3:00 PM84 °FBroken clouds.10 mph40%29.56 "HgN/A
2:00 PM86 °FPartly sunny.9 mph40%29.56 "HgN/A
1:00 PM84 °FPartly sunny.12 mph40%29.59 "HgN/A
12:00 PM84 °FScattered clouds.9 mph40%29.62 "HgN/A
11:00 AM82 °FSunny.7 mph45%29.62 "Hg10 mi
10:00 AM81 °FPassing clouds.7 mph45%29.65 "HgN/A
9:00 AM79 °FSunny.3 mph51%29.65 "Hg10 mi
8:00 AM77 °FPassing clouds.5 mph51%29.68 "HgN/A
7:00 AM73 °FSunny.5 mph57%29.68 "Hg10 mi
6:00 AM68 °FPassing clouds.5 mph64%29.68 "HgN/A
5:00 AM66 °FSunny.3 mph68%29.68 "Hg10 mi
8:00 PM
Fri, May 29
81 °FPassing clouds.10 mph45%29.68 "HgN/A
7:00 PM82 °FPassing clouds.7 mph45%29.65 "HgN/A
6:00 PM86 °FPassing clouds.6 mph38%29.62 "HgN/A
Weather by CustomWeather, © 2015

See weather overviewHow to use our weather pages